contact:dominique.lefevre@mio.osupytheas.fr, maurice.libes@osupytheas.fr, didier.mallarino@osupytheas.fr
Project:EMSO http://www.emso-fr.org/EMSO-France
Depth: 2436.0 m
Title:EMSO Ligure Ouest : Data MII capteur MICROCAT
DateTime_Computer,Latitude,Longitude,Temperature,Conductivity,Pressure,DateTime_Instrument
DateTime_Computer,Latitude,Longitude,degC,S m-1,dbar,DateTime_Instrument
2023-04-27T05:28:08Z,42.805,6.029,13.3036,4.60093,2470.67,2023-4-27T07:31:12Z
2023-04-27T05:31:11Z,42.805,6.029,13.3038,4.60093,2470.646,2023-4-27T07:34:15Z
2023-04-27T05:34:14Z,42.805,6.029,13.3039,4.60097,2470.684,2023-4-27T07:37:18Z
2023-04-27T05:37:18Z,42.805,6.029,13.3035,4.60095,2470.624,2023-4-27T07:40:21Z
2023-04-27T05:40:21Z,42.805,6.029,13.3038,4.60095,2470.661,2023-4-27T07:43:24Z
2023-04-27T05:43:24Z,42.805,6.029,13.3035,4.60097,2470.637,2023-4-27T07:46:27Z
2023-04-27T05:46:27Z,42.805,6.029,13.3040,4.60100,2470.646,2023-4-27T07:49:30Z
2023-04-27T05:49:30Z,42.805,6.029,13.3035,4.60095,2470.637,2023-4-27T07:52:33Z
2023-04-27T05:52:33Z,42.805,6.029,13.3040,4.60103,2470.67,2023-4-27T07:55:36Z
2023-04-27T05:55:36Z,42.805,6.029,13.3035,4.60097,2470.67,2023-4-27T07:58:39Z
2023-04-27T05:58:39Z,42.805,6.029,13.3039,4.60105,2470.624,2023-4-27T08:01:42Z
2023-04-27T06:01:42Z,42.805,6.029,13.3036,4.60099,2470.614,2023-4-27T08:04:46Z
2023-04-27T06:04:45Z,42.805,6.029,13.3036,4.60099,2470.637,2023-4-27T08:07:49Z
2023-04-27T06:07:48Z,42.805,6.029,13.3036,4.60101,2470.6,2023-4-27T08:10:52Z
2023-04-27T06:10:51Z,42.805,6.029,13.3041,4.60098,2470.684,2023-4-27T08:13:55Z
2023-04-27T07:53:08Z,42.805,6.029,13.3036,4.60092,2470.6,2023-4-27T09:56:12Z
2023-04-27T07:56:11Z,42.805,6.029,13.3034,4.60096,2470.661,2023-4-27T09:59:15Z
2023-04-27T07:59:14Z,42.805,6.029,13.3037,4.60095,2470.6,2023-4-27T10:02:18Z
2023-04-27T08:02:17Z,42.805,6.029,13.3039,4.60096,2470.614,2023-4-27T10:05:21Z
2023-04-27T08:05:21Z,42.805,6.029,13.3036,4.60102,2470.6,2023-4-27T10:08:24Z
2023-04-27T08:08:24Z,42.805,6.029,13.3038,4.60097,2470.6,2023-4-27T10:11:27Z
2023-04-27T08:11:27Z,42.805,6.029,13.3041,4.60102,2470.591,2023-4-27T10:14:30Z
2023-04-27T08:14:30Z,42.805,6.029,13.3038,4.60096,2470.6,2023-4-27T10:17:33Z
2023-04-27T08:17:33Z,42.805,6.029,13.3037,4.60096,2470.6,2023-4-27T10:20:36Z
2023-04-27T08:20:36Z,42.805,6.029,13.3038,4.60103,2470.591,2023-4-27T10:23:39Z
2023-04-27T08:23:39Z,42.805,6.029,13.3039,4.60102,2470.6,2023-4-27T10:26:42Z
2023-04-27T08:26:42Z,42.805,6.029,13.3041,4.60102,2470.553,2023-4-27T10:29:45Z
2023-04-27T08:29:45Z,42.805,6.029,13.3039,4.60104,2470.553,2023-4-27T10:32:49Z
2023-04-27T08:32:48Z,42.805,6.029,13.3036,4.60097,2470.6,2023-4-27T10:35:52Z
2023-04-27T08:35:51Z,42.805,6.029,13.3041,4.60106,2470.6,2023-4-27T10:38:55Z
2023-04-27T08:38:54Z,42.805,6.029,13.3039,4.60113,2470.6,2023-4-27T10:41:58Z
2023-04-27T08:41:58Z,42.805,6.029,13.3038,4.60104,2470.577,2023-4-27T10:45:01Z
2023-04-27T08:45:01Z,42.805,6.029,13.3041,4.60095,2470.553,2023-4-27T10:48:04Z
2023-04-27T08:48:04Z,42.805,6.029,13.3040,4.60101,2470.553,2023-4-27T10:51:07Z
2023-04-27T08:51:07Z,42.805,6.029,13.3045,4.60110,2470.6,2023-4-27T10:54:10Z
2023-04-27T08:54:10Z,42.805,6.029,13.3038,4.60107,2470.6,2023-4-27T10:57:13Z
2023-04-27T08:57:13Z,42.805,6.029,13.3041,4.60109,2470.6,2023-4-27T11:00:16Z
2023-04-27T09:00:16Z,42.805,6.029,13.3043,4.60101,2470.577,2023-4-27T11:03:19Z
2023-04-27T09:03:19Z,42.805,6.029,13.3041,4.60111,2470.563,2023-4-27T11:06:23Z
2023-04-27T09:06:22Z,42.805,6.029,13.3035,4.60097,2470.614,2023-4-27T11:09:26Z
2023-04-27T09:09:25Z,42.805,6.029,13.3039,4.60099,2470.624,2023-4-27T11:12:29Z
2023-04-27T09:12:28Z,42.805,6.029,13.3039,4.60102,2470.6,2023-4-27T11:15:32Z
2023-04-27T09:15:31Z,42.805,6.029,13.3043,4.60113,2470.6,2023-4-27T11:18:35Z
2023-04-27T09:18:35Z,42.805,6.029,13.3039,4.60103,2470.6,2023-4-27T11:21:38Z
2023-04-27T09:21:38Z,42.805,6.029,13.3043,4.60106,2470.624,2023-4-27T11:24:41Z
2023-04-27T09:24:41Z,42.805,6.029,13.3038,4.60102,2470.577,2023-4-27T11:27:44Z
2023-04-27T09:27:44Z,42.805,6.029,13.3043,4.60106,2470.6,2023-4-27T11:30:47Z
2023-04-27T09:30:47Z,42.805,6.029,13.3040,4.60107,2470.614,2023-4-27T11:33:50Z
2023-04-27T09:33:50Z,42.805,6.029,13.3042,4.60101,2470.614,2023-4-27T11:36:53Z
2023-04-27T09:36:53Z,42.805,6.029,13.3039,4.60104,2470.577,2023-4-27T11:39:56Z
2023-04-27T09:39:56Z,42.805,6.029,13.3046,4.60104,2470.6,2023-4-27T11:43:00Z
2023-04-27T09:42:59Z,42.805,6.029,13.3043,4.60102,2470.6,2023-4-27T11:46:03Z
2023-04-27T09:46:02Z,42.805,6.029,13.3041,4.60102,2470.6,2023-4-27T11:49:06Z
2023-04-27T09:49:05Z,42.805,6.029,13.3041,4.60099,2470.577,2023-4-27T11:52:09Z
2023-04-27T09:52:08Z,42.805,6.029,13.3041,4.60107,2470.6,2023-4-27T11:55:12Z
2023-04-27T09:55:12Z,42.805,6.029,13.3044,4.60099,2470.624,2023-4-27T11:58:15Z
2023-04-27T09:58:15Z,42.805,6.029,13.3038,4.60101,2470.6,2023-4-27T12:01:18Z
2023-04-27T10:01:18Z,42.805,6.029,13.3038,4.60097,2470.624,2023-4-27T12:04:21Z
2023-04-27T10:04:21Z,42.805,6.029,13.3041,4.60099,2470.624,2023-4-27T12:07:24Z
2023-04-27T10:07:24Z,42.805,6.029,13.3039,4.60098,2470.577,2023-4-27T12:10:27Z
2023-04-27T10:10:27Z,42.805,6.029,13.3043,4.60100,2470.614,2023-4-27T12:13:30Z
2023-04-27T10:13:30Z,42.805,6.029,13.3042,4.60098,2470.577,2023-4-27T12:16:33Z
2023-04-27T10:16:33Z,42.805,6.029,13.3041,4.60101,2470.6,2023-4-27T12:19:37Z
2023-04-27T10:19:36Z,42.805,6.029,13.3043,4.60101,2470.6,2023-4-27T12:22:40Z
2023-04-27T10:22:39Z,42.805,6.029,13.3042,4.60102,2470.6,2023-4-27T12:25:43Z
2023-04-27T10:25:42Z,42.805,6.029,13.3042,4.60106,2470.661,2023-4-27T12:28:46Z
2023-04-27T10:28:45Z,42.805,6.029,13.3047,4.60104,2470.624,2023-4-27T12:31:49Z
2023-04-27T10:31:49Z,42.805,6.029,13.3043,4.60102,2470.624,2023-4-27T12:34:52Z
2023-04-27T10:34:52Z,42.805,6.029,13.3040,4.60102,2470.6,2023-4-27T12:37:55Z
2023-04-27T10:37:55Z,42.805,6.029,13.3037,4.60102,2470.624,2023-4-27T12:40:58Z
2023-04-27T10:40:58Z,42.805,6.029,13.3041,4.60104,2470.637,2023-4-27T12:44:01Z
2023-04-27T10:44:01Z,42.805,6.029,13.3041,4.60112,2470.6,2023-4-27T12:47:04Z
2023-04-27T10:47:04Z,42.805,6.029,13.3043,4.60110,2470.624,2023-4-27T12:50:07Z
2023-04-27T10:50:07Z,42.805,6.029,13.3043,4.60112,2470.614,2023-4-27T12:53:10Z
2023-04-27T10:53:10Z,42.805,6.029,13.3044,4.60110,2470.624,2023-4-27T12:56:14Z
2023-04-27T10:56:13Z,42.805,6.029,13.3041,4.60104,2470.6,2023-4-27T12:59:17Z
2023-04-27T10:59:16Z,42.805,6.029,13.3041,4.60101,2470.614,2023-4-27T13:02:20Z
2023-04-27T11:02:19Z,42.805,6.029,13.3038,4.60100,2470.6,2023-4-27T13:05:23Z
2023-04-27T11:05:22Z,42.805,6.029,13.3046,4.60106,2470.624,2023-4-27T13:08:26Z
2023-04-27T11:08:25Z,42.805,6.029,13.3043,4.60103,2470.6,2023-4-27T13:11:29Z
2023-04-27T11:11:29Z,42.805,6.029,13.3036,4.60099,2470.624,2023-4-27T13:14:32Z
2023-04-27T11:14:32Z,42.805,6.029,13.3042,4.60103,2470.624,2023-4-27T13:17:35Z
2023-04-27T11:17:35Z,42.805,6.029,13.3047,4.60104,2470.6,2023-4-27T13:20:38Z
2023-04-27T11:20:38Z,42.805,6.029,13.3042,4.60102,2470.6,2023-4-27T13:23:41Z
2023-04-27T11:23:41Z,42.805,6.029,13.3040,4.60105,2470.624,2023-4-27T13:26:44Z
2023-04-27T11:26:44Z,42.805,6.029,13.3044,4.60108,2470.614,2023-4-27T13:29:47Z
2023-04-27T11:29:47Z,42.805,6.029,13.3039,4.60102,2470.614,2023-4-27T13:32:51Z
2023-04-27T11:32:50Z,42.805,6.029,13.3040,4.60101,2470.637,2023-4-27T13:35:54Z
2023-04-27T11:35:53Z,42.805,6.029,13.3043,4.60105,2470.6,2023-4-27T13:38:57Z
2023-04-27T11:38:56Z,42.805,6.029,13.3043,4.60114,2470.624,2023-4-27T13:42:00Z
2023-04-27T11:41:59Z,42.805,6.029,13.3043,4.60104,2470.614,2023-4-27T13:45:03Z
2023-04-27T11:45:03Z,42.805,6.029,13.3043,4.60103,2470.6,2023-4-27T13:48:06Z
2023-04-27T11:48:06Z,42.805,6.029,13.3043,4.60116,2470.6,2023-4-27T13:51:09Z
2023-04-27T11:51:09Z,42.805,6.029,13.3042,4.60104,2470.6,2023-4-27T13:54:12Z
2023-04-27T11:54:12Z,42.805,6.029,13.3037,4.60102,2470.614,2023-4-27T13:57:15Z
2023-04-27T11:57:15Z,42.805,6.029,13.3040,4.60101,2470.6,2023-4-27T14:00:18Z
2023-04-27T12:00:18Z,42.805,6.029,13.3039,4.60101,2470.6,2023-4-27T14:03:21Z
2023-04-27T12:03:21Z,42.805,6.029,13.3046,4.60110,2470.6,2023-4-27T14:06:24Z
2023-04-27T12:06:24Z,42.805,6.029,13.3041,4.60116,2470.624,2023-4-27T14:09:28Z
2023-04-27T12:09:27Z,42.805,6.029,13.3046,4.60114,2470.637,2023-4-27T14:12:31Z
2023-04-27T12:12:30Z,42.805,6.029,13.3042,4.60099,2470.614,2023-4-27T14:15:34Z
2023-04-27T12:15:33Z,42.805,6.029,13.3039,4.60099,2470.591,2023-4-27T14:18:37Z
2023-04-27T12:18:36Z,42.805,6.029,13.3041,4.60102,2470.563,2023-4-27T14:21:40Z
2023-04-27T12:21:39Z,42.805,6.029,13.3043,4.60104,2470.614,2023-4-27T14:24:43Z
2023-04-27T12:24:43Z,42.805,6.029,13.3039,4.60105,2470.6,2023-4-27T14:27:46Z
2023-04-27T12:27:46Z,42.805,6.029,13.3043,4.60103,2470.624,2023-4-27T14:30:49Z
2023-04-27T12:30:49Z,42.805,6.029,13.3041,4.60109,2470.6,2023-4-27T14:33:52Z
2023-04-27T12:33:52Z,42.805,6.029,13.3043,4.60102,2470.624,2023-4-27T14:36:55Z
2023-04-27T12:36:55Z,42.805,6.029,13.3046,4.60102,2470.614,2023-4-27T14:39:58Z
2023-04-27T12:39:58Z,42.805,6.029,13.3041,4.60102,2470.6,2023-4-27T14:43:01Z
2023-04-27T12:43:01Z,42.805,6.029,13.3043,4.60114,2470.577,2023-4-27T14:46:05Z
2023-04-27T12:46:04Z,42.805,6.029,13.3045,4.60108,2470.591,2023-4-27T14:49:08Z
2023-04-27T12:49:07Z,42.805,6.029,13.3043,4.60112,2470.577,2023-4-27T14:52:11Z
2023-04-27T12:52:10Z,42.805,6.029,13.3043,4.60106,2470.6,2023-4-27T14:55:14Z
2023-04-27T12:55:13Z,42.805,6.029,13.3043,4.60103,2470.624,2023-4-27T14:58:17Z
2023-04-27T12:58:17Z,42.805,6.029,13.3039,4.60104,2470.591,2023-4-27T15:01:20Z
2023-04-27T13:01:20Z,42.805,6.029,13.3041,4.60100,2470.614,2023-4-27T15:04:23Z
2023-04-27T13:04:23Z,42.805,6.029,13.3045,4.60103,2470.577,2023-4-27T15:07:26Z
2023-04-27T13:07:26Z,42.805,6.029,13.3041,4.60102,2470.577,2023-4-27T15:10:29Z
2023-04-27T13:10:29Z,42.805,6.029,13.3043,4.60102,2470.6,2023-4-27T15:13:32Z
2023-04-27T13:13:32Z,42.805,6.029,13.3044,4.60101,2470.614,2023-4-27T15:16:35Z
2023-04-27T13:16:35Z,42.805,6.029,13.3051,4.60111,2470.624,2023-4-27T15:19:38Z
2023-04-27T13:19:38Z,42.805,6.029,13.3043,4.60106,2470.591,2023-4-27T15:22:42Z
2023-04-27T13:22:41Z,42.805,6.029,13.3041,4.60102,2470.577,2023-4-27T15:25:45Z
2023-04-27T13:25:44Z,42.805,6.029,13.3043,4.60102,2470.586,2023-4-27T15:28:48Z
2023-04-27T13:28:47Z,42.805,6.029,13.3042,4.60102,2470.591,2023-4-27T15:31:51Z
2023-04-27T13:31:50Z,42.805,6.029,13.3041,4.60100,2470.577,2023-4-27T15:34:54Z
2023-04-27T13:34:53Z,42.805,6.029,13.3043,4.60103,2470.577,2023-4-27T15:37:57Z
2023-04-27T13:37:57Z,42.805,6.029,13.3043,4.60104,2470.6,2023-4-27T15:41:00Z
2023-04-27T13:41:00Z,42.805,6.029,13.3042,4.60104,2470.624,2023-4-27T15:44:03Z
2023-04-27T13:44:03Z,42.805,6.029,13.3047,4.60105,2470.553,2023-4-27T15:47:06Z
2023-04-27T13:47:06Z,42.805,6.029,13.3043,4.60112,2470.577,2023-4-27T15:50:09Z
2023-04-27T13:50:09Z,42.805,6.029,13.3039,4.60103,2470.6,2023-4-27T15:53:12Z
2023-04-27T13:53:12Z,42.805,6.029,13.3045,4.60110,2470.614,2023-4-27T15:56:15Z
2023-04-27T13:56:15Z,42.805,6.029,13.3040,4.60103,2470.577,2023-4-27T15:59:19Z
2023-04-27T13:59:18Z,42.805,6.029,13.3043,4.60110,2470.591,2023-4-27T16:02:22Z
2023-04-27T14:02:21Z,42.805,6.029,13.3042,4.60111,2470.577,2023-4-27T16:05:25Z
2023-04-27T14:05:24Z,42.805,6.029,13.3047,4.60107,2470.539,2023-4-27T16:08:28Z
2023-04-27T14:08:27Z,42.805,6.029,13.3040,4.60101,2470.6,2023-4-27T16:11:31Z
2023-04-27T14:11:30Z,42.805,6.029,13.3039,4.60100,2470.591,2023-4-27T16:14:34Z
2023-04-27T14:14:34Z,42.805,6.029,13.3043,4.60110,2470.577,2023-4-27T16:17:37Z
2023-04-27T14:17:37Z,42.805,6.029,13.3048,4.60107,2470.577,2023-4-27T16:20:40Z
2023-04-27T14:20:40Z,42.805,6.029,13.3042,4.60107,2470.577,2023-4-27T16:23:43Z
2023-04-27T14:23:43Z,42.805,6.029,13.3044,4.60116,2470.6,2023-4-27T16:26:46Z
2023-04-27T14:26:46Z,42.805,6.029,13.3041,4.60104,2470.577,2023-4-27T16:29:49Z
2023-04-27T14:29:49Z,42.805,6.029,13.3043,4.60120,2470.567,2023-4-27T16:32:53Z
2023-04-27T14:32:52Z,42.805,6.029,13.3046,4.60123,2470.577,2023-4-27T16:35:56Z
2023-04-27T14:35:55Z,42.805,6.029,13.3052,4.60120,2470.6,2023-4-27T16:38:59Z
2023-04-27T14:38:58Z,42.805,6.029,13.3040,4.60114,2470.544,2023-4-27T16:42:02Z
2023-04-27T14:42:01Z,42.805,6.029,13.3041,4.60109,2470.567,2023-4-27T16:45:05Z
2023-04-27T14:45:04Z,42.805,6.029,13.3046,4.60112,2470.577,2023-4-27T16:48:08Z
2023-04-27T14:48:07Z,42.805,6.029,13.3044,4.60113,2470.577,2023-4-27T16:51:11Z
2023-04-27T14:51:11Z,42.805,6.029,13.3043,4.60104,2470.577,2023-4-27T16:54:14Z
2023-04-27T14:54:14Z,42.805,6.029,13.3047,4.60110,2470.577,2023-4-27T16:57:17Z
2023-04-27T14:57:17Z,42.805,6.029,13.3046,4.60116,2470.624,2023-4-27T17:00:20Z
2023-04-27T15:00:20Z,42.805,6.029,13.3045,4.60110,2470.553,2023-4-27T17:03:23Z
2023-04-27T15:03:23Z,42.805,6.029,13.3042,4.60102,2470.6,2023-4-27T17:06:26Z
2023-04-27T15:06:26Z,42.805,6.029,13.3041,4.60102,2470.577,2023-4-27T17:09:30Z
2023-04-27T15:09:29Z,42.805,6.029,13.3043,4.60114,2470.577,2023-4-27T17:12:33Z
2023-04-27T15:12:32Z,42.805,6.029,13.3041,4.60107,2470.577,2023-4-27T17:15:36Z
2023-04-27T15:15:35Z,42.805,6.029,13.3043,4.60107,2470.591,2023-4-27T17:18:39Z
2023-04-27T15:18:38Z,42.805,6.029,13.3040,4.60107,2470.614,2023-4-27T17:21:42Z
2023-04-27T15:21:41Z,42.805,6.029,13.3043,4.60117,2470.577,2023-4-27T17:24:45Z
2023-04-27T15:24:45Z,42.805,6.029,13.3046,4.60103,2470.591,2023-4-27T17:27:48Z
2023-04-27T15:27:48Z,42.805,6.029,13.3046,4.60112,2470.591,2023-4-27T17:30:51Z
2023-04-27T15:30:51Z,42.805,6.029,13.3043,4.60105,2470.591,2023-4-27T17:33:54Z
2023-04-27T15:33:54Z,42.805,6.029,13.3044,4.60106,2470.577,2023-4-27T17:36:57Z
2023-04-27T15:36:57Z,42.805,6.029,13.3043,4.60106,2470.591,2023-4-27T17:40:00Z
2023-04-27T15:40:00Z,42.805,6.029,13.3043,4.60119,2470.591,2023-4-27T17:43:03Z
2023-04-27T15:43:03Z,42.805,6.029,13.3044,4.60104,2470.553,2023-4-27T17:46:07Z
2023-04-27T15:46:06Z,42.805,6.029,13.3049,4.60118,2470.567,2023-4-27T17:49:10Z
2023-04-27T15:49:09Z,42.805,6.029,13.3048,4.60115,2470.553,2023-4-27T17:52:13Z
2023-04-27T15:52:12Z,42.805,6.029,13.3051,4.60112,2470.553,2023-4-27T17:55:16Z
2023-04-27T15:55:15Z,42.805,6.029,13.3041,4.60117,2470.591,2023-4-27T17:58:19Z
2023-04-27T15:58:18Z,42.805,6.029,13.3049,4.60111,2470.553,2023-4-27T18:01:22Z
2023-04-27T16:01:21Z,42.805,6.029,13.3047,4.60114,2470.577,2023-4-27T18:04:25Z
2023-04-27T16:04:25Z,42.805,6.029,13.3047,4.60110,2470.563,2023-4-27T18:07:28Z
2023-04-27T16:07:28Z,42.805,6.029,13.3045,4.60104,2470.577,2023-4-27T18:10:31Z
2023-04-27T16:10:31Z,42.805,6.029,13.3046,4.60110,2470.553,2023-4-27T18:13:34Z
2023-04-27T16:13:34Z,42.805,6.029,13.3047,4.60112,2470.6,2023-4-27T18:16:37Z
2023-04-27T16:16:37Z,42.805,6.029,13.3048,4.60122,2470.591,2023-4-27T18:19:41Z
2023-04-27T16:19:40Z,42.805,6.029,13.3043,4.60106,2470.577,2023-4-27T18:22:44Z
2023-04-27T16:22:43Z,42.805,6.029,13.3044,4.60113,2470.553,2023-4-27T18:25:47Z
2023-04-27T16:25:46Z,42.805,6.029,13.3049,4.60119,2470.577,2023-4-27T18:28:50Z
2023-04-27T16:28:49Z,42.805,6.029,13.3050,4.60107,2470.577,2023-4-27T18:31:53Z
2023-04-27T16:31:52Z,42.805,6.029,13.3043,4.60103,2470.577,2023-4-27T18:34:56Z
2023-04-27T16:34:55Z,42.805,6.029,13.3045,4.60118,2470.577,2023-4-27T18:37:59Z
2023-04-27T16:37:59Z,42.805,6.029,13.3048,4.60117,2470.591,2023-4-27T18:41:02Z
2023-04-27T16:41:02Z,42.805,6.029,13.3046,4.60132,2470.577,2023-4-27T18:44:05Z
2023-04-27T16:44:05Z,42.805,6.029,13.3041,4.60112,2470.553,2023-4-27T18:47:08Z
2023-04-27T16:47:08Z,42.805,6.029,13.3045,4.60107,2470.577,2023-4-27T18:50:11Z
2023-04-27T16:50:11Z,42.805,6.029,13.3052,4.60115,2470.577,2023-4-27T18:53:14Z
2023-04-27T16:53:14Z,42.805,6.029,13.3039,4.60099,2470.553,2023-4-27T18:56:18Z
2023-04-27T16:56:17Z,42.805,6.029,13.3043,4.60121,2470.544,2023-4-27T18:59:21Z
2023-04-27T16:59:20Z,42.805,6.029,13.3049,4.60114,2470.591,2023-4-27T19:02:24Z
2023-04-27T17:02:23Z,42.805,6.029,13.3046,4.60117,2470.614,2023-4-27T19:05:27Z
2023-04-27T17:05:26Z,42.805,6.029,13.3048,4.60107,2470.577,2023-4-27T19:08:30Z
2023-04-27T17:08:29Z,42.805,6.029,13.3046,4.60108,2470.577,2023-4-27T19:11:33Z
2023-04-27T17:11:32Z,42.805,6.029,13.3044,4.60118,2470.6,2023-4-27T19:14:36Z
2023-04-27T17:14:36Z,42.805,6.029,13.3043,4.60117,2470.591,2023-4-27T19:17:39Z
2023-04-27T17:17:39Z,42.805,6.029,13.3056,4.60110,2470.553,2023-4-27T19:20:42Z
2023-04-27T17:20:42Z,42.805,6.029,13.3048,4.60110,2470.591,2023-4-27T19:23:45Z
2023-04-27T17:23:45Z,42.805,6.029,13.3046,4.60121,2470.614,2023-4-27T19:26:48Z
2023-04-27T17:26:48Z,42.805,6.029,13.3042,4.60112,2470.614,2023-4-27T19:29:52Z
2023-04-27T17:29:51Z,42.805,6.029,13.3048,4.60112,2470.577,2023-4-27T19:32:55Z
2023-04-27T17:32:54Z,42.805,6.029,13.3046,4.60113,2470.591,2023-4-27T19:35:58Z
2023-04-27T17:35:57Z,42.805,6.029,13.3046,4.60106,2470.591,2023-4-27T19:39:01Z
2023-04-27T17:39:00Z,42.805,6.029,13.3048,4.60118,2470.553,2023-4-27T19:42:04Z
2023-04-27T17:42:03Z,42.805,6.029,13.3044,4.60114,2470.577,2023-4-27T19:45:07Z
2023-04-27T17:45:06Z,42.805,6.029,13.3046,4.60114,2470.577,2023-4-27T19:48:10Z
2023-04-27T17:48:10Z,42.805,6.029,13.3045,4.60113,2470.553,2023-4-27T19:51:13Z
2023-04-27T17:51:13Z,42.805,6.029,13.3045,4.60107,2470.6,2023-4-27T19:54:16Z
2023-04-27T17:54:16Z,42.805,6.029,13.3045,4.60110,2470.553,2023-4-27T19:57:19Z
2023-04-27T17:57:19Z,42.805,6.029,13.3041,4.60104,2470.577,2023-4-27T20:00:22Z
2023-04-27T18:00:22Z,42.805,6.029,13.3050,4.60121,2470.577,2023-4-27T20:03:25Z
2023-04-27T18:03:25Z,42.805,6.029,13.3043,4.60112,2470.567,2023-4-27T20:06:28Z
2023-04-27T18:06:28Z,42.805,6.029,13.3046,4.60110,2470.577,2023-4-27T20:09:32Z
2023-04-27T18:09:31Z,42.805,6.029,13.3042,4.60112,2470.591,2023-4-27T20:12:35Z
2023-04-27T18:12:34Z,42.805,6.029,13.3043,4.60105,2470.577,2023-4-27T20:15:38Z
2023-04-27T18:15:37Z,42.805,6.029,13.3046,4.60119,2470.567,2023-4-27T20:18:41Z
2023-04-27T18:18:40Z,42.805,6.029,13.3047,4.60110,2470.577,2023-4-27T20:21:44Z
2023-04-27T18:21:43Z,42.805,6.029,13.3045,4.60104,2470.577,2023-4-27T20:24:47Z
2023-04-27T18:24:46Z,42.805,6.029,13.3045,4.60115,2470.577,2023-4-27T20:27:50Z
2023-04-27T18:27:50Z,42.805,6.029,13.3056,4.60108,2470.553,2023-4-27T20:30:53Z
2023-04-27T18:30:54Z,42.805,6.029,13.3038,4.60103,2470.591,2023-4-27T20:33:58Z
2023-04-27T18:33:57Z,42.805,6.029,13.3042,4.60117,2470.591,2023-4-27T20:37:01Z
2023-04-27T18:37:00Z,42.805,6.029,13.3047,4.60117,2470.614,2023-4-27T20:40:04Z
2023-04-27T18:40:03Z,42.805,6.029,13.3044,4.60109,2470.6,2023-4-27T20:43:07Z
2023-04-27T18:43:06Z,42.805,6.029,13.3049,4.60117,2470.553,2023-4-27T20:46:10Z
2023-04-27T18:46:10Z,42.805,6.029,13.3049,4.60119,2470.6,2023-4-27T20:49:13Z
2023-04-27T18:49:13Z,42.805,6.029,13.3044,4.60127,2470.577,2023-4-27T20:52:16Z
2023-04-27T18:52:16Z,42.805,6.029,13.3044,4.60115,2470.577,2023-4-27T20:55:19Z
2023-04-27T18:55:19Z,42.805,6.029,13.3049,4.60116,2470.6,2023-4-27T20:58:22Z
2023-04-27T18:58:22Z,42.805,6.029,13.3039,4.60099,2470.577,2023-4-27T21:01:26Z
2023-04-27T19:01:25Z,42.805,6.029,13.3049,4.60117,2470.577,2023-4-27T21:04:29Z
2023-04-27T19:04:28Z,42.805,6.029,13.3042,4.60119,2470.6,2023-4-27T21:07:32Z
2023-04-27T19:07:31Z,42.805,6.029,13.3043,4.60108,2470.6,2023-4-27T21:10:35Z
2023-04-27T19:10:34Z,42.805,6.029,13.3043,4.60105,2470.591,2023-4-27T21:13:38Z
2023-04-27T19:13:37Z,42.805,6.029,13.3038,4.60097,2470.553,2023-4-27T21:16:41Z
2023-04-27T19:16:40Z,42.805,6.029,13.3041,4.60102,2470.6,2023-4-27T21:19:44Z
2023-04-27T19:19:43Z,42.805,6.029,13.3050,4.60108,2470.577,2023-4-27T21:22:47Z
2023-04-27T19:22:47Z,42.805,6.029,13.3046,4.60119,2470.577,2023-4-27T21:25:50Z
2023-04-27T19:25:50Z,42.805,6.029,13.3040,4.60102,2470.6,2023-4-27T21:28:53Z
2023-04-27T19:28:53Z,42.805,6.029,13.3046,4.60121,2470.6,2023-4-27T21:31:56Z
2023-04-27T19:31:56Z,42.805,6.029,13.3044,4.60122,2470.614,2023-4-27T21:34:59Z
2023-04-27T19:34:59Z,42.805,6.029,13.3046,4.60123,2470.577,2023-4-27T21:38:03Z
2023-04-27T19:38:02Z,42.805,6.029,13.3037,4.60112,2470.577,2023-4-27T21:41:06Z
2023-04-27T19:41:05Z,42.805,6.029,13.3050,4.60122,2470.6,2023-4-27T21:44:09Z
2023-04-27T19:44:08Z,42.805,6.029,13.3049,4.60113,2470.6,2023-4-27T21:47:12Z
2023-04-27T19:47:11Z,42.805,6.029,13.3048,4.60114,2470.591,2023-4-27T21:50:15Z
2023-04-27T19:50:14Z,42.805,6.029,13.3043,4.60102,2470.577,2023-4-27T21:53:18Z
2023-04-27T19:53:17Z,42.805,6.029,13.3046,4.60110,2470.6,2023-4-27T21:56:21Z
2023-04-27T19:56:21Z,42.805,6.029,13.3039,4.60102,2470.563,2023-4-27T21:59:24Z
2023-04-27T19:59:24Z,42.805,6.029,13.3048,4.60106,2470.6,2023-4-27T22:02:27Z
2023-04-27T20:02:27Z,42.805,6.029,13.3046,4.60112,2470.6,2023-4-27T22:05:30Z
2023-04-27T20:05:30Z,42.805,6.029,13.3043,4.60110,2470.614,2023-4-27T22:08:33Z
2023-04-27T20:08:33Z,42.805,6.029,13.3039,4.60107,2470.577,2023-4-27T22:11:36Z
2023-04-27T20:11:36Z,42.805,6.029,13.3041,4.60117,2470.6,2023-4-27T22:14:40Z
2023-04-27T20:14:39Z,42.805,6.029,13.3048,4.60113,2470.6,2023-4-27T22:17:43Z
2023-04-27T20:17:42Z,42.805,6.029,13.3048,4.60113,2470.6,2023-4-27T22:20:46Z
2023-04-27T20:20:45Z,42.805,6.029,13.3045,4.60117,2470.614,2023-4-27T22:23:49Z
2023-04-27T20:23:48Z,42.805,6.029,13.3041,4.60102,2470.637,2023-4-27T22:26:52Z
2023-04-27T20:26:51Z,42.805,6.029,13.3048,4.60110,2470.577,2023-4-27T22:29:55Z
2023-04-27T20:29:54Z,42.805,6.029,13.3042,4.60099,2470.6,2023-4-27T22:32:58Z
2023-04-27T20:32:57Z,42.805,6.029,13.3043,4.60103,2470.614,2023-4-27T22:36:01Z
2023-04-27T20:36:01Z,42.805,6.029,13.3041,4.60098,2470.646,2023-4-27T22:39:04Z
2023-04-27T20:39:04Z,42.805,6.029,13.3043,4.60107,2470.637,2023-4-27T22:42:07Z
2023-04-27T20:42:07Z,42.805,6.029,13.3044,4.60110,2470.6,2023-4-27T22:45:10Z
2023-04-27T20:45:10Z,42.805,6.029,13.3043,4.60119,2470.661,2023-4-27T22:48:13Z
2023-04-27T20:48:13Z,42.805,6.029,13.3041,4.60117,2470.624,2023-4-27T22:51:17Z
2023-04-27T20:51:16Z,42.805,6.029,13.3042,4.60112,2470.624,2023-4-27T22:54:20Z
2023-04-27T20:54:19Z,42.805,6.029,13.3045,4.60115,2470.646,2023-4-27T22:57:23Z
2023-04-27T20:57:22Z,42.805,6.029,13.3036,4.60097,2470.637,2023-4-27T23:00:26Z
2023-04-27T21:00:25Z,42.805,6.029,13.3048,4.60112,2470.646,2023-4-27T23:03:29Z
2023-04-27T21:03:28Z,42.805,6.029,13.3041,4.60099,2470.6,2023-4-27T23:06:32Z
2023-04-27T21:06:31Z,42.805,6.029,13.3051,4.60114,2470.646,2023-4-27T23:09:35Z
2023-04-27T21:09:35Z,42.805,6.029,13.3040,4.60104,2470.646,2023-4-27T23:12:38Z
2023-04-27T21:12:38Z,42.805,6.029,13.3039,4.60099,2470.624,2023-4-27T23:15:41Z
2023-04-27T21:15:41Z,42.805,6.029,13.3038,4.60112,2470.637,2023-4-27T23:18:44Z
2023-04-27T21:18:44Z,42.805,6.029,13.3043,4.60115,2470.661,2023-4-27T23:21:47Z
2023-04-27T21:21:47Z,42.805,6.029,13.3036,4.60099,2470.646,2023-4-27T23:24:51Z
2023-04-27T21:24:50Z,42.805,6.029,13.3044,4.60110,2470.646,2023-4-27T23:27:54Z
2023-04-27T21:27:53Z,42.805,6.029,13.3044,4.60109,2470.67,2023-4-27T23:30:57Z
2023-04-27T21:30:56Z,42.805,6.029,13.3037,4.60107,2470.67,2023-4-27T23:34:00Z
2023-04-27T21:33:59Z,42.805,6.029,13.3046,4.60111,2470.661,2023-4-27T23:37:03Z
2023-04-27T21:37:02Z,42.805,6.029,13.3046,4.60104,2470.646,2023-4-27T23:40:06Z
2023-04-27T21:40:05Z,42.805,6.029,13.3041,4.60107,2470.67,2023-4-27T23:43:09Z
2023-04-27T21:43:08Z,42.805,6.029,13.3036,4.60104,2470.646,2023-4-27T23:46:12Z
2023-04-27T21:46:12Z,42.805,6.029,13.3039,4.60106,2470.646,2023-4-27T23:49:15Z
2023-04-27T21:49:15Z,42.805,6.029,13.3038,4.60099,2470.67,2023-4-27T23:52:18Z
2023-04-27T21:52:18Z,42.805,6.029,13.3041,4.60100,2470.661,2023-4-27T23:55:21Z
2023-04-27T21:55:21Z,42.805,6.029,13.3050,4.60111,2470.693,2023-4-27T23:58:25Z
2023-04-27T21:58:24Z,42.805,6.029,13.3040,4.60104,2470.67,2023-4-28T00:01:28Z
2023-04-27T22:01:27Z,42.805,6.029,13.3042,4.60110,2470.684,2023-4-28T00:04:31Z
2023-04-27T22:04:30Z,42.805,6.029,13.3046,4.60117,2470.67,2023-4-28T00:07:34Z
2023-04-27T22:07:33Z,42.805,6.029,13.3040,4.60102,2470.707,2023-4-28T00:10:37Z
2023-04-27T22:10:36Z,42.805,6.029,13.3043,4.60109,2470.67,2023-4-28T00:13:40Z
2023-04-27T22:13:39Z,42.805,6.029,13.3047,4.60117,2470.67,2023-4-28T00:16:43Z
2023-04-27T22:16:42Z,42.805,6.029,13.3045,4.60106,2470.693,2023-4-28T00:19:46Z
2023-04-27T22:19:45Z,42.805,6.029,13.3037,4.60113,2470.67,2023-4-28T00:22:49Z